{"data":{"norad_id":57136,"intl_designator":"2023-090AM","name":"STARLINK-6112","alt_names":[],"object_type":"PAYLOAD","status":"ACTIVE","operator":null,"country":"US","launch_date":"2023-06-23","launch_site_code":"AFETR","launch_vehicle":null,"mission":null,"orbit_class":"UNKNOWN","rcs_meters":null,"size_class":null,"mass_kg":null,"dimensions":null,"purposes":["comms"],"wikipedia_slug":null,"has_3d_model":false,"image_url":null,"decayed_at":null,"tle_current":{"epoch":"2026-09-20T23:36:09.573696Z","epoch_age_seconds":79078,"freshness":"FRESH","line1":"1 57136U 23090AM  26263.98344414  .00000410  00000+0  24405-4 0  9995","line2":"2 57136  43.0027 240.2088 0000473 335.5964  24.4866 15.27581930180249","mean_motion":15.2758193,"eccentricity":4.73e-5,"inclination_deg":43.0027,"raan_deg":240.2088,"arg_perigee_deg":335.5964,"mean_anomaly_deg":24.4866,"bstar":2.4405e-5,"rev_number":18024,"period_min":94.266629613771,"perigee_km":482.71878310243,"apogee_km":483.36785076042,"semimajor_km":6861.1803169314,"source":"CELESTRAK","updated_at":"2026-09-21T09:00:33.565312Z"}}}